Olympia, WA
on Saturday, November 3, 2012

Saturday
Previous Day Next Day
Daily Summary
 ActualAverageRecord
Temperature
Mean Temperature °F 46°F  
Max Temperature 60°F 54°F 71°F (1949)
Min Temperature 52°F 38°F 18°F (2002)
Degree Days
Heating Degree Days 9 19  
Month to date heating degree days 32 56  
Since 1 July heating degree days 810 850  
Cooling Degree Days 0 0  
Month to date cooling degree days 0 0  
Year to date cooling degree days 82 106  
Growing Degree Days6 (Base °F )  
Moisture
Dew Point 54°F   
Average Humidity 86    
Maximum Humidity 93    
Minimum Humidity 78    
Precipitation
Precipitation 0.03 in 0.25 in 1.83 in (1983)
Month to date precipitation 1.04 0.73  
Year to date precipitation 41.74 34.64  
Wind
Wind Speed 5 mph   
Max Wind Speed 16 mph   
Max Gust Speed 22 mph   
Visibility 8 miles   
Events Rain   

Key: T is trace of precipitation, MM is missing value
Source: NWS Daily Summary
Time(PDT)TemperatureDew PointHumidity Pressure Visibility Wind DirectionWind SpeedGust SpeedPrecipitationEvents Conditions
12:54 AM 52.0°F 52.0°F 100% 29.98 in 5.0 miles Calm Calm - 0.04 in   Overcast
1:54 AM 53.1°F 52.0°F 96% 29.98 in 7.0 miles SSW 3.5 mph - N/A   Overcast
2:30 AM 53.6°F 51.8°F 94% 29.97 in 8.0 miles South 3.5 mph - N/A   Overcast
2:54 AM 53.1°F 52.0°F 96% 29.98 in 7.0 miles Calm Calm - N/A   Overcast
3:54 AM 53.1°F 52.0°F 96% 29.98 in 5.0 miles Calm Calm - N/A   Overcast
4:54 AM 53.1°F 52.0°F 96% 30.00 in 9.0 miles Calm Calm - N/A   Overcast
5:54 AM 53.1°F 52.0°F 96% 30.00 in 7.0 miles SW 3.5 mph - N/A   Overcast
6:11 AM 53.6°F 51.8°F 94% 30.00 in 7.0 miles Calm Calm - N/A   Overcast
6:54 AM 53.1°F 52.0°F 96% 30.00 in 7.0 miles SW 3.5 mph - N/A   Overcast
7:41 AM 53.6°F 51.8°F 94% 30.02 in 10.0 miles SSW 5.8 mph - N/A   Overcast
7:54 AM 54.0°F 52.0°F 93% 30.02 in 10.0 miles SW 6.9 mph - N/A   Overcast
8:54 AM 55.0°F 52.0°F 89% 30.03 in 10.0 miles South 9.2 mph - N/A   Overcast
9:54 AM 55.0°F 53.1°F 93% 30.04 in 9.0 miles SSW 10.4 mph - N/A   Overcast
10:54 AM 55.9°F 53.1°F 90% 30.05 in 9.0 miles South 9.2 mph - N/A   Overcast
11:18 AM 57.2°F 53.6°F 88% 30.05 in 9.0 miles South 12.7 mph - N/A   Overcast
11:54 AM 57.0°F 54.0°F 89% 30.06 in 9.0 miles SSW 11.5 mph - N/A   Overcast
12:54 PM 59.0°F 55.0°F 87% 30.06 in 8.0 miles South 11.5 mph - N/A   Overcast
1:02 PM 59.0°F 55.4°F 88% 30.06 in 7.0 miles SSW 11.5 mph - 0.00 in Rain Light Rain
1:54 PM 60.1°F 54.0°F 80% 30.06 in 8.0 miles South 11.5 mph - 0.00 in   Overcast
2:54 PM 59.0°F 54.0°F 83% 30.07 in 6.0 miles SSW 13.8 mph 21.9 mph 0.00 in Rain Light Rain
3:54 PM 57.0°F 55.0°F 93% 30.11 in 4.0 miles SW 6.9 mph - 0.02 in Rain Light Rain
4:09 PM 57.2°F 55.4°F 94% 30.11 in 5.0 miles SW 8.1 mph - 0.01 in Rain Light Rain
4:54 PM 57.0°F 55.9°F 96% 30.12 in 8.0 miles SSW 8.1 mph - 0.01 in   Mostly Cloudy
5:22 PM 57.2°F 55.4°F 94% 30.13 in 8.0 miles West 3.5 mph - N/A   Overcast
5:54 PM 57.0°F 55.9°F 96% 30.14 in 8.0 miles WSW 3.5 mph - N/A   Mostly Cloudy
6:54 PM 57.0°F 55.0°F 93% 30.15 in 9.0 miles Calm Calm - 0.00 in   Overcast
7:54 PM 55.9°F 54.0°F 93% 30.16 in 10.0 miles South 4.6 mph - 0.00 in   Overcast
8:47 PM 55.4°F 53.6°F 94% 30.15 in 9.0 miles Calm Calm - N/A   Overcast
8:54 PM 55.9°F 54.0°F 93% 30.15 in 9.0 miles Calm Calm - N/A   Overcast
9:54 PM 55.0°F 54.0°F 96% 30.16 in 8.0 miles Calm Calm - N/A   Overcast
10:08 PM 55.4°F 53.6°F 94% 30.16 in 6.0 miles Calm Calm - N/A   Overcast
10:23 PM 55.4°F 53.6°F 94% 30.17 in 8.0 miles West 3.5 mph - N/A   Overcast
10:54 PM 55.0°F 54.0°F 96% 30.17 in 8.0 miles Calm Calm - N/A   Overcast
11:54 PM 55.0°F 54.0°F 96% 30.18 in 5.0 miles Calm Calm - N/A   Overcast
Moon Phase
Nov. 03 Nov. 06 Nov. 13 Nov. 20 Nov. 28
Sunrise:07:58 AM (PDT) Moon Rise:09:31 PM (PDT)11/3
Sunset:05:51 PM (PDT) Moon Set:12:12 PM (PDT)11/3

Copyright © 2014 The Weather Underground, Inc.